Piney Island, NC

7:21 AM EDT on April 27, 2017 (GMT -0400)
Piney Island

Weather History for KNBT - August, 2013

Change the Weather History Date:

Saturday, August 24, 2013

  Actual Average (KMRH) Record (KMRH)
Temperature  
Mean Temperature 78 °F -  
Max Temperature 82 °F 86 °F 95 °F (1968)
Min Temperature 73 °F 69 °F 59 °F (1985)
Cooling Degree Days 12    
Growing Degree Days 28 (Base 50)    
Moisture  
Dew Point 69 °F    
Average Humidity 77    
Maximum Humidity 97    
Minimum Humidity 58    
Precipitation  
Precipitation 0.31 in - - ()
Sea Level Pressure  
Sea Level Pressure 30.12 in    
Wind  
Wind Speed 12 mph (NNE)    
Max Wind Speed 24 mph    
Max Gust Speed 33 mph    
Visibility 9 miles    
Events Rain    
Averages and records for this station are not official NWS values.
T = Trace of Precipitation, MM = Missing Value Source: NWS Daily Summary

Daily Weather History Graph

Daily Weather History Graph

Search for Another Location

Airport or City:

Trip Planner

Search our weather history database for the weather conditions in past years. The results will help you decide how hot, cold, wet, or windy it might be!

Date:

Astronomy

Aug. 24, 2013 Rise Set
Actual Time 6:32 AM EDT 7:42 PM EDT
Civil Twilight 6:06 AM EDT 8:09 PM EDT
Nautical Twilight 5:35 AM EDT 8:40 PM EDT
Astronomical Twilight 5:02 AM EDT 9:12 PM EDT
Moon 9:48 PM EDT (8/24) 10:18 AM EDT (8/24)
Length of Visible Light 14h 02m
Length of Day
13h 10m
Waning Gibbous, 84% of the Moon is Illuminated
Aug 24
Waning Gibbous
Aug 28
Last Quarter
Sep 5
New
Sep 12
First Quarter
Sep 19
Full

Hourly Weather History & Observations

Time (EDT) Temp. Heat Index Dew Point Humidity Pressure Visibility Wind Dir Wind Speed Gust Speed Precip Events Conditions
12:56 AM 75.0 °F - 73.0 °F 94% 30.04 in 10.0 mi Calm Calm - N/A   Scattered Clouds
1:56 AM 73.9 °F - 73.0 °F 97% 30.03 in 10.0 mi WSW 4.6 mph - N/A   Scattered Clouds
2:40 AM 75.2 °F - 73.4 °F 94% 30.02 in 7.0 mi NW 5.8 mph - 0.00 in Rain Light Rain
2:56 AM 75.9 °F - 73.9 °F 94% 30.03 in 7.0 mi NW 11.5 mph - 0.00 in   Overcast
3:44 AM 75.2 °F - 73.4 °F 94% 30.02 in 7.0 mi NNW 11.5 mph - N/A   Overcast
3:52 AM 77.0 °F - 73.4 °F 89% 30.02 in 7.0 mi NNW 12.7 mph - N/A   Overcast
3:56 AM 75.9 °F - 73.9 °F 94% 30.04 in 7.0 mi North 11.5 mph 19.6 mph N/A   Overcast
4:09 AM 75.2 °F - 73.4 °F 94% 30.02 in 10.0 mi NNE 10.4 mph - N/A   Overcast
4:32 AM 75.2 °F - 71.6 °F 89% 30.02 in 1.8 mi North 24.2 mph 33.4 mph 0.16 in Rain Heavy Rain
4:41 AM 73.4 °F - 71.6 °F 94% 30.04 in 1.2 mi NNE 17.3 mph 28.8 mph 0.31 in Rain Heavy Rain
4:47 AM 73.4 °F - 71.6 °F 94% 30.04 in 3.0 mi NNE 20.7 mph 28.8 mph 0.31 in Rain Light Rain
4:56 AM 73.0 °F - 69.1 °F 87% 30.05 in 8.0 mi NNE 21.9 mph 31.1 mph 0.31 in Rain Light Rain
5:09 AM 73.4 °F - 68.0 °F 83% 30.04 in 10.0 mi NE 20.7 mph 29.9 mph 0.00 in Rain Light Rain
5:56 AM 75.9 °F - 68.0 °F 76% 30.06 in 10.0 mi NNE 19.6 mph 28.8 mph 0.00 in   Overcast
6:56 AM 73.9 °F - 70.0 °F 87% 30.10 in 9.0 mi North 13.8 mph - N/A   Mostly Cloudy
7:56 AM 75.9 °F - 69.1 °F 79% 30.12 in 10.0 mi NNE 15.0 mph 26.5 mph N/A   Overcast
8:56 AM 77.0 °F - 64.9 °F 66% 30.13 in 10.0 mi NNE 20.7 mph 28.8 mph N/A   Clear
9:56 AM 78.1 °F - 66.0 °F 66% 30.15 in 10.0 mi NNE 17.3 mph 29.9 mph N/A   Clear
10:56 AM 79.0 °F - 66.0 °F 64% 30.17 in 10.0 mi North 19.6 mph 25.3 mph N/A   Partly Cloudy
11:56 AM 81.0 °F 83.0 °F 66.0 °F 60% 30.18 in 10.0 mi NNE 17.3 mph 24.2 mph N/A   Clear
12:56 PM 81.0 °F 83.0 °F 66.0 °F 60% 30.18 in 10.0 mi NNE 16.1 mph 21.9 mph N/A   Scattered Clouds
1:56 PM 82.0 °F 84.1 °F 66.0 °F 58% 30.19 in 10.0 mi NNE 18.4 mph 24.2 mph N/A   Scattered Clouds
2:56 PM 81.0 °F 83.0 °F 66.0 °F 60% 30.19 in 10.0 mi NE 19.6 mph 27.6 mph N/A   Mostly Cloudy
3:56 PM 82.0 °F 84.9 °F 68.0 °F 62% 30.19 in 10.0 mi NE 18.4 mph 27.6 mph N/A   Clear
4:56 PM 81.0 °F 83.3 °F 66.9 °F 62% 30.19 in 10.0 mi NE 23.0 mph 28.8 mph N/A   Partly Cloudy
5:56 PM 80.1 °F 82.3 °F 66.9 °F 64% 30.20 in 10.0 mi NE 18.4 mph 28.8 mph N/A   Clear
6:56 PM 79.0 °F - 66.0 °F 64% 30.21 in 10.0 mi NE 19.6 mph 26.5 mph N/A   Clear
7:56 PM 78.1 °F - 66.0 °F 66% 30.21 in 10.0 mi NE 15.0 mph 27.6 mph N/A   Clear
8:56 PM 78.1 °F - 64.0 °F 62% 30.23 in 10.0 mi NE 16.1 mph 28.8 mph N/A   Partly Cloudy
9:56 PM 77.0 °F - 66.9 °F 71% 30.25 in 10.0 mi NNE 17.3 mph 21.9 mph N/A   Scattered Clouds
10:56 PM 75.9 °F - 66.0 °F 71% 30.25 in 10.0 mi NE 17.3 mph 23.0 mph N/A   Clear
11:56 PM 75.9 °F - 64.0 °F 67% 30.26 in 10.0 mi NNE 13.8 mph 23.0 mph N/A   Clear